Weather at Boerne Stage Field

Public forecast

Using degrees Fahrenheit for public forecast. Weather courtesy of forecast.io.

Current aviation weather report (METAR) for Boerne Stage Field

(retrieved 0 seconds ago)

Closest aviation forecast (TAF) to Boerne Stage Field

Closest forecast is San Antonio International Airport, 16.4 nm (30.3 km) SE.

2024/07/21 06:22 (retrieved 2 hours ago)

TAF KSAT 210520Z 2106/2212 18004KT P6SM FEW040 FEW250 TEMPO 2111/2115 BKN015 FM211800 12007KT P6SM SCT050 PROB30 2122/2203 VRB15G25KT 3SM TSRA BKN025CB